Flag for U.S.A. Weather past 2 weeks in Norfolk, Virginia, U.S.A.

Now
30 °F

Partly sunny.


Feels Like: 20 °F
Forecast: 23 / 31 °F
Wind: 13 mph from Northeast

Location: Norfolk Naval Air Station

Current Time: Feb 28, 2015 at 2:30:51 PM

Latest Report: Feb 28, 2015 at 1:59 PM


Visibility: 10 mi

Pressure: 30.79 "Hg

Humidity: 51%

Dew point: 14 °F

Location of NorfolkLocation

Historic Weather in Norfolk — Graph

°F

Norfolk temperature yesterday

Maximum temperature yesterday: 38 °F (at 11:59 AM)
Minimum temperature yesterday: 27 °F (at 6:59 AM)
Average temperature yesterday: 32 °F

Past Weeks' High & Low Weather Summary

 TemperatureHumidityPressure
High52 °F (Feb 22, 2:59 PM)89% (Feb 22, 9:59 AM)30.84 "Hg (Feb 22, 9:59 AM)
Low11 °F (Feb 20, 5:59 AM)18% (Feb 15, 3:59 PM)29.50 "Hg (Feb 14, 7:59 PM)
Average30 °F56%30.16 "Hg
* Reported Feb 13 12:59 PM — Feb 28 12:59 PM, Norfolk, Weather by CustomWeather, © 2015

Note: Actual official high and low records may vary slightly from our data, if they occured in-between our weather recording intervals... More about our weather records

Advertising

Norfolk weather history for previous 24 hours

 ConditionsComfort  
Time TempWeatherWind HumidityBarometerVisibility
12:59 PM
Sat, Feb 28
30 °FBroken clouds.14 mph54%30.81 "Hg10 mi
11:59 AM31 °FBroken clouds.14 mph54%30.84 "Hg10 mi
10:59 AM30 °FBroken clouds.14 mph51%30.84 "Hg10 mi
9:59 AM30 °FBroken clouds.13 mph51%30.84 "Hg10 mi
8:59 AM29 °FBroken clouds.13 mph56%30.84 "Hg10 mi
7:59 AM28 °FBroken clouds.14 mph53%30.80 "Hg10 mi
6:59 AM28 °FBroken clouds.16 mph53%30.78 "Hg10 mi
5:59 AM29 °FClear.16 mph56%30.75 "Hg10 mi
4:59 AM29 °FClear.17 mph56%30.73 "Hg10 mi
3:59 AM30 °FClear.15 mph49%30.69 "Hg10 mi
2:59 AM30 °FClear.16 mph51%30.68 "Hg10 mi
1:59 AM30 °FPassing clouds.13 mph54%30.67 "Hg10 mi
12:59 AM31 °FClear.14 mph59%30.65 "Hg9 mi
11:59 PM
Fri, Feb 27
31 °FClear.15 mph64%30.62 "Hg8 mi
10:59 PM31 °FClear.12 mph67%30.61 "Hg8 mi
9:59 PM31 °FClear.12 mph69%30.58 "Hg8 mi
8:59 PM32 °FClear.8 mph64%30.57 "Hg10 mi
7:59 PM32 °FClear.13 mph69%30.55 "Hg9 mi
6:59 PM33 °FClear.14 mph66%30.52 "Hg9 mi
5:59 PM33 °FPassing clouds.15 mph70%30.50 "Hg7 mi
4:59 PM34 °FOvercast.15 mph67%30.48 "Hg9 mi
3:59 PM34 °FBroken clouds.17 mph67%30.46 "Hg8 mi
2:59 PM35 °FBroken clouds.17 mph67%30.45 "Hg8 mi
Weather by CustomWeather, © 2015

See weather overviewHow to use our weather pages